Hourly Data Report for November 11, 2018

CARBERRY CS
MANITOBA
Current Station Operator: ECCC - MSC

49°54'20.900" N
99°21'26.800" W
383.50 m
5010547
71170
WZE

Download Data

Hourly Data (November 2018)
Hourly Data Report for November 11, 2018
TIME
LST
Temp Definition
°C
Dew Point Definition
°C
Rel Hum Definition
%
Precip. Amount Definition
mm

Wind Dir Definition
10's deg

Wind Spd Definition
km/h
Visibility Definition
km
Stn Press Definition
kPa
Hmdx Definition


Wind Chill Definition


Weather Definition


00:00 -12.5 -14.0 88 0.0 31 7   97.07   -17 LegendNANA
01:00 -12.4 -13.9 89 0.0 29 6   97.12   -16 LegendNANA
02:00 -11.2 -12.8 88 0.2 31 9   97.17   -16 LegendNANA
03:00 -12.0 -13.5 89 0.0 28 11   97.22   -18 LegendNANA
04:00 -10.9 -12.5 88 0.0 30 10   97.27   -16 LegendNANA
05:00 -11.0 -12.8 86 0.0 29 12   97.32   -17 LegendNANA
06:00 -10.2 -12.6 82 0.0 29 16   97.36   -17 LegendNANA
07:00 -9.4 -12.1 81 0.0 28 13   97.37   -15 LegendNANA
08:00 -8.5 -11.2 81 0.0 30 15   97.45   -15 LegendNANA
09:00 -8.3 -10.8 82 0.0 29 18   97.53   -15 LegendNANA
10:00 -7.7 -10.8 78 0.0 30 20   97.57   -15 LegendNANA
11:00 -7.7 -11.6 73 0.0 31 25   97.62   -16 LegendNANA
12:00 -7.6 -12.9 66 0.0 32 22   97.71   -15 LegendNANA
13:00 -7.6 -12.2 70 0.0 31 22   97.78   -15 LegendNANA
14:00 -7.6 -13.9 60 0.0 32 23   97.83   -15 LegendNANA
15:00 -7.8 -14.1 60 0.0 31 25   97.85   -16 LegendNANA
16:00 -8.2 -12.0 74 0.0 29 23   97.94   -16 LegendNANA
17:00 -8.2 -12.4 72 0.0 29 16   98.04   -15 LegendNANA
18:00 -9.5 -12.1 81 0.0 36 10   98.15   -15 LegendNANA
19:00 -9.5 -14.7 66 0.0 32 19   98.23   -17 LegendNANA
20:00 -10.1 -13.8 74 0.0 35 5   98.30   -13 LegendNANA
21:00 -9.4 -14.5 67 0.0 31 13   98.36   -15 LegendNANA
22:00 -9.9 -13.6 74 0.0 26 9   98.40   -15 LegendNANA
23:00 -9.5 -12.6 78 0.0 29 15   98.42   -16 LegendNANA

Notes on Data Quality.

Legend

  • E = Estimated
  • M = Missing
  • NA = Not Available*
  • [empty] = Indicates an unobserved value
Date modified: